www.pogodaiklimat.ru

Погода и климат >> Архив погоды >> Россия >> Хабаровский край >> Тумнин


ПОГОДА в Тумнине

  • Прогноз погоды в Тумнине
  • Монитор погоды в Тумнине

АРХИВ ПОГОДЫ в Тумнине

Время (UTC), дата Ветер
(напр.,м/с)
 
Видим.   Явления Облачность Т
(С)
Тd
(С)
f
(%)
Тe
(С)
Тes
(С)
Комфортность P
(гПа)
Po
(гПа)
Тmin
(С)
Tmax
(С)
R
(мм)
R24
(мм)
S
(см)
09 13.09 С 1 50 км 8/3 1000 м
[Sc Ac trans Ci fib]
+15.2 +12.7 85 +16 +16 1011.7 1004.8 +23.2
12 13.09 штиль 0 50 км 10/3 1000 м
[Sc Ac trans Ci fib]
+10.9 +10.3 96 +10 +10 1011.0 1004.0
15 13.09 штиль 0 20 км 10/0
[Ac trans]
+9.7 +9.3 97 +9 +9 1008.5 1001.5
18 13.09 штиль 0 50 км 10/0
[Ac trans]
+9.3 +9.1 99 +8 +8 1006.2 999.2
21 13.09 С 1 500 м туман ?/? +9.5 +9.4 99 +9 +9 1003.4 996.4 +9.2 0.0
00 14.09 ЮЗ 1 10 км слаб. ливневой дождь {туман} туман 10/10 600 м
[Cb cap]
+11.5 +10.7 95 +11 +11 1001.8 994.9
03 14.09 ЮЗ 2 50 км {ливн. осадки} 8/8 1000 м
[Cb cap]
+17.0 +12.9 77 +17 +19 1000.0 993.2
06 14.09 ЮЗ 3
{10}
50 км {ливн. осадки} 1/1 1000 м
[Cu hum]
+22.9 +6.6 35 +24 +27 комфорт 1000.6 994.0
09 14.09 З 1
{11}
50 км ясно +14.9 +9.9 72 +15 +15 1003.5 996.6 +23.2 0.4
12 14.09 ЮЗ 1 50 км ясно +9.0 +8.3 95 +8 +8 1007.3 1000.2
15 14.09 штиль 0 50 км ясно +6.2 +4.8 91 +5 +5 1009.5 1002.4
18 14.09 штиль 0 50 км ясно +3.5 +2.4 92 +2 +2 1011.2 1004.0
21 14.09 штиль 0 500 м туман ?/? +3.6 +3.4 99 +2 +2 1013.5 1006.3 +2.9
00 15.09 В 1 50 км в посл. час туман ясно +10.2 +7.5 83 +10 +17 1013.0 1006.0
03 15.09 Ю 2 50 км ясно +20.5 +5.9 39 +22 +32 комфорт 1011.0 1004.2
06 15.09 Ю 2 50 км 1/1 1000 м
[Cb cap]
+23.5 +7.5 36 +24 +28 комфорт 1008.9 1002.2
09 15.09 С 1 50 км ясно +14.2 +12.2 88 +15 +15 1010.8 1003.9 +23.8
12 15.09 штиль 0 50 км 6/0
[Ac trans]
+9.0 +8.2 95 +8 +8 1011.7 1004.7
15 15.09 СВ 1 50 км 10/0
[Ac trans]
+5.5 +4.8 95 +4 +4 1011.6 1004.5
18 15.09 штиль 0 500 м туман ?/? +4.9 +4.7 99 +4 +4 1010.8 1003.7
21 15.09 штиль 0 500 м туман ?/? +5.7 +5.5 99 +5 +5 1010.5 1003.4 +4.9 0.0
00 16.09 Ю 1 500 м туман ?/? +8.1 +7.5 96 +7 +7 1009.4 1002.4
03 16.09 Ю 2 50 км {туман} 8/3 1000 м
[Cb cap Ac trans Ci]
+19.5 +10.7 57 +21 +26 комфорт 1006.5 999.7
06 16.09 С 1 50 км {туман} 9/4 1000 м
[Cb cap Ac trans]
+17.8 +6.8 48 +19 +20 1006.6 999.8
09 16.09 СЗ 1 50 км 3/3 1000 м
[Cb cap Ac trans]
+14.2 +11.8 85 +15 +15 1007.0 1000.1 +20.1
12 16.09 штиль 0 50 км 4/0
[Ac trans]
+7.8 +6.3 90 +7 +7 1009.0 1001.9
15 16.09 СЗ 1 50 км 3/0
[Ac trans]
+6.7 +6.3 97 +5 +5 1010.1 1003.0
18 16.09 штиль 0 500 м туман ?/? +3.0 +2.9 99 +2 +2 1010.9 1003.7
21 16.09 штиль 0 500 м туман ?/? +0.4 +0.2 99 -1 -1 1012.3 1005.0 +0.1 0.0
00 17.09 ЮВ 2 50 км в посл. час туман ясно +10.6 +6.3 75 +9 +15 1011.9 1004.9
03 17.09 ЮЗ 2 50 км ясно +17.0 +0.5 33 +17 +27 1010.8 1003.9
06 17.09 З 1 50 км ясно +18.6 +0.2 29 +20 +24 1010.4 1003.6
09 17.09 штиль 0 50 км ясно +9.6 +5.7 77 +9 +9 1012.3 1005.2 +18.8
12 17.09 З 1 50 км ясно +3.4 +2.4 93 +2 +2 1014.0 1006.8
15 17.09 СВ 1 50 км ясно +0.4 -0.2 96 -2 -2 1014.4 1007.1
18 17.09 штиль 0 н/о {туман} н/о -0.4 -1.5 92 -2 -2 1013.7 1006.4
21 17.09 штиль 0 500 м туман ?/? -0.4 -0.6 99 -2 -2 1012.7 1005.4 -1.1
00 18.09 ЮВ 1 20 км в посл. час туман 9/6 1000 м
[Cb cap Ac trans Ci fib]
+5.2 +2.5 83 +4 +6 1010.2 1003.1
03 18.09 Ю 2 50 км 9/8 1000 м
[Cb cap Ac trans]
+16.2 +8.0 58 +16 +18 1006.5 999.7
06 18.09 ЮВ 2
{12}
50 км 10/5 1000 м
[Cb cap Ac trans]
+15.2 +4.9 50 +15 +16 1004.8 997.9
09 18.09 ЮВ 2 50 км 10/10 1000 м
[Cb cap]
+13.5 +7.8 68 +13 +13 1002.8 995.9 +20.1
12 18.09 С 2 2000 м ливневой дождь 10/10 600 м
[Cb cap]
+10.1 +9.2 94 +8 +8 999.9 993.0
15 18.09 Ю 2 2000 м ливневой дождь 10/10 600 м
[Cb cap]
+5.9 +5.1 95 +3 +3 997.2 990.2
18 18.09 СВ 1 4000 м слаб. ливневой дождь 10/10 600 м
[Cb cap]
+5.0 +3.6 91 +4 +4 996.7 989.6
21 18.09 З 1 50 км {ливн. осадки} 8/8 1000 м
[Sc]
+4.0 +2.4 89 +3 +3 996.9 989.8 +3.9 27
00 19.09 З 2 50 км {ливн. осадки} 8/8 1000 м
[Cb cap]
+9.0 +2.8 65 +8 +9 996.7 989.7
03 19.09 З 1 50 км 10/10 1000 м
[Cb cap]
+10.0 +2.2 58 +10 +10 996.7 989.8
06 19.09 В 2 50 км 9/9 1000 м
[Cb cap]
+11.0 +2.8 57 +10 +10 997.4 990.5
09 19.09 З 1 50 км {ливн. осадки} 6/6 1000 м
[Cb cap]
+5.2 +3.0 86 +4 +4 1000.8 993.7 +11.6 0.3
12 19.09 С 1 50 км {ливн. осадки} 3/3 1000 м
[Cb cap]
+2.0 +1.4 96 0 0 1003.4 996.2
15 19.09 штиль 0 50 км 4/4 1000 м
[Cb cap]
+2.3 +1.7 96 +1 +1 1004.3 997.2
18 19.09 С 1 500 м туман ?/? +3.1 +2.3 94 +1 +1 1005.5 998.3
21 19.09 Ю 1 10 км слаб. ливневой дождь {туман} 10/10 1000 м
[Cb cap]
+5.5 +3.9 89 +4 +4 1008.0 1000.9 +1.8 0.0
00 20.09 штиль 0 50 км {ливн. осадки, туман} 10/10 1000 м
[Cb cap]
+7.9 +6.1 88 +7 +7 1010.2 1003.2
03 20.09 С 3 50 км 9/8 1000 м
[Cb cap Ac trans]
+13.0 +5.8 62 +12 +13 1011.9 1005.0
06 20.09 С 1 50 км 9/8 1000 м
[Cb cap Ac trans]
+14.2 +6.1 58 +15 +15 1014.4 1007.5

 

Местоположение метеостанции Тумнин (Хабаровский край, Россия): широта 49.65 долгота 140.00 высота над уровнем моря 58 м.

В архиве по умолчанию представлена погода в Тумнине за последнюю неделю. Архивные данные за месяц целиком и за предыдущие месяцы, начиная с января 2011 года, Вы можете получить, выбрав интересующий диапазон дат из раскрывающегося списка и нажав кнопку "Ввод!".


*Определитесь, кто Вы:
робот инопланетянин человек

Внимание! Время в таблицах - всемирное. Для получения местного времени необходимо прибавить поправку, которая равна 10 ч.

Смотрите также архив погоды в соседних городах и на ближайших метеорологических станциях:

Погода в Советской Гавани (Хабаровский край, Россия) (75 км)
Погода в Мопау (Хабаровский край, Россия) (97 км)
Погода в Сегжеме (Хабаровский край, Россия) (138 км)
Погода в Солекуль (Хабаровский край, Россия) (154 км)
Погода в Пильво (Сахалинская область, Россия) (157 км)
Погода в Углегорске (Сахалинская область, Россия) (159 км)
Погода в Оноре (Сахалинская область, Россия) (190 км)
Погода в Циммермановка (Хабаровский край, Россия) (195 км)
Погода в Нижнетамбовском (Хабаровский край, Россия) (195 км)
Погода в Александровске-Сахалинском (Сахалинская область, Россия) (204 км)

Пояснения к столбцам:

Ветер - указаны скорость ветра в м/с - средняя за 10 мин, порывы в срок и между сроками (в фигурных скобках) и направление, откуда дует ветер: С - северный, СВ - северо-восточный, В - восточный, ЮВ - юго-восточный, Ю - южный, ЮЗ - юго-западный, З - западный, СЗ - северо-западный.
Видимость - горизонтальная дальность видимости в метрах или километрах. При видимости от 1 до 10 км при отсутствии осадков обычно наблюдается дымка, при ухудшении видимости до 1 км и менее - туман. В сухую погоду видимость может ухудшаться дымом, пылью или мглою.
Явления - указаны атмосферные явления, наблюдавшиеся в срок или в последний час перед сроком; фигурными скобками обозначены явления, наблюдавшиеся между сроками (за 1-3 часа до срока); квадратными скобками обозначены град или гололедные отложения с указанием их диаметра в мм.
Облачность - указаны через наклонную черту общая и нижняя облачность в баллах и высота нижней границы облаков в метрах; квадратными скобками обозначены формы облаков: Ci - перистые, Cs - перисто-слоистые, Cc - перисто-кучевые, Ac - высококучевые, As - высокослоистые, Sc - слоисто-кучевые, Ns - слоисто-дождевые, Cu - кучевые, Cb - кучево-дождевые. Подробнее классификацию облаков см. в Атласе облаков (PDF).
T - Температура воздуха - температура, измеренная на высоте 2 м над землей.
Td - Температура точки росы - температура, при понижении до которой содержащийся в воздухе водяной пар достигнет насыщения.
f - Относительная влажность воздуха - влажноcть воздуха, измеренная на высоте 2 м над землей.
Te - Эффективная температура - температура, которую ощущает одетый по сезону человек в тени. Характеристика душности погоды. При расчете учитывается влияние влажности воздуха и скорости ветра на теплоощущения человека.
Tes - Эффективная температура на солнце - температура, которую ощущает человек, с поправкой на солнечный нагрев. Характеристика знойности погоды. Зависит от высоты солнца над горизонтом, облачности и скорости ветра. Ночью, в пасмурную погоду, а также при ветре 12 м/с и более поправка равна нулю.
P - Атмосферное давление - приведенное к уровню моря атмосферное давление.
Po - Атмосферное давление - измеренное на уровне метеостанции атмосферное давление.
Tmin - Минимальная температура - минимум температуры воздуха на высоте 2 м над землей.
Tmax - Максимальная температура - максимум температуры воздуха на высоте 2 м над землей.
R - Количество осадков - Количество выпавших осадков за период времени, мм. При наведении курсора мыши на число - период времени, за который выпало указанное количество осадков.
R24 - Количество осадков - Количество выпавших осадков за 24 часа, мм.
S - Снежный покров - Высота снежного покрова, см. При наведении курсора мыши на число - состояние снежного покрова и степень покрытия местности в баллах.